Time,TemperatureF,DewpointF,PressureIn,WindDirection,WindDirectionDegrees,WindSpeedMPH,WindSpeedGustMPH,Humidity,HourlyPrecipIn,Conditions,Clouds,dailyrainin,SoftwareType,DateUTC
2013-03-04 00:01:00,15.0,13.0,-100.00,WNW,295,6.0,8.0,88,-99.99,,,-99.99,,2013-03-04 05:01:00,
2013-03-04 00:11:00,15.0,13.0,-100.00,WNW,295,6.0,8.0,88,-99.99,,,-99.99,,2013-03-04 05:11:00,
2013-03-04 00:22:00,15.0,13.0,-100.00,NW,310,5.0,7.0,88,-99.99,,,-99.99,,2013-03-04 05:22:00,
2013-03-04 00:32:00,15.0,12.0,-100.00,NW,305,4.0,7.0,88,-99.99,,,-99.99,,2013-03-04 05:32:00,
2013-03-04 00:42:00,15.0,12.0,-100.00,NW,305,4.0,7.0,88,-99.99,,,-99.99,,2013-03-04 05:42:00,
2013-03-04 00:52:00,16.0,13.0,-100.00,North,350,2.0,6.0,88,-99.99,,,-99.99,,2013-03-04 05:52:00,
2013-03-04 01:02:00,16.0,13.0,-100.00,NNW,335,2.0,5.0,89,-99.99,,,-99.99,,2013-03-04 06:02:00,
2013-03-04 01:11:00,16.0,13.0,-100.00,NNW,335,2.0,5.0,89,-99.99,,,-99.99,,2013-03-04 06:11:00,
2013-03-04 01:21:00,15.0,13.0,-100.00,NW,305,4.0,6.0,89,-99.99,,,-99.99,,2013-03-04 06:21:00,
2013-03-04 01:32:00,16.0,13.0,-100.00,NW,305,4.0,5.0,89,-99.99,,,-99.99,,2013-03-04 06:32:00,
2013-03-04 01:42:00,16.0,13.0,-100.00,NW,305,4.0,5.0,89,-99.99,,,-99.99,,2013-03-04 06:42:00,
2013-03-04 01:51:00,15.0,13.0,-100.00,WNW,290,4.0,6.0,89,-99.99,,,-99.99,,2013-03-04 06:51:00,
2013-03-04 02:01:00,16.0,13.0,-100.00,NNW,335,4.0,6.0,90,-99.99,,,-99.99,,2013-03-04 07:01:00,
2013-03-04 02:11:00,16.0,13.0,-100.00,NNW,335,4.0,6.0,90,-99.99,,,-99.99,,2013-03-04 07:11:00,
2013-03-04 02:21:00,16.0,13.0,-100.00,NNW,335,4.0,6.0,90,-99.99,,,-99.99,,2013-03-04 07:21:00,
2013-03-04 02:32:00,16.0,13.0,-100.00,NW,310,4.0,5.0,90,-99.99,,,-99.99,,2013-03-04 07:32:00,
2013-03-04 02:42:00,16.0,13.0,-100.00,NW,310,4.0,5.0,90,-99.99,,,-99.99,,2013-03-04 07:42:00,
2013-03-04 02:51:00,14.0,12.0,-100.00,WNW,300,2.0,4.0,90,-99.99,,,-99.99,,2013-03-04 07:51:00,
2013-03-04 03:02:00,14.0,12.0,-100.00,WNW,300,2.0,4.0,90,-99.99,,,-99.99,,2013-03-04 08:02:00,
2013-03-04 03:11:00,14.0,12.0,-100.00,WNW,300,2.0,4.0,90,-99.99,,,-99.99,,2013-03-04 08:11:00,
2013-03-04 03:22:00,13.0,10.0,-100.00,WNW,300,4.0,5.0,91,-99.99,,,-99.99,,2013-03-04 08:22:00,
2013-03-04 03:32:00,12.0,10.0,-100.00,WNW,300,4.0,6.0,92,-99.99,,,-99.99,,2013-03-04 08:32:00,
2013-03-04 03:42:00,12.0,10.0,-100.00,WNW,300,4.0,6.0,92,-99.99,,,-99.99,,2013-03-04 08:42:00,
2013-03-04 03:52:00,12.0,11.0,-100.00,NW,310,4.0,6.0,93,-99.99,,,-99.99,,2013-03-04 08:52:00,
2013-03-04 04:02:00,12.0,11.0,-100.00,NW,310,4.0,6.0,93,-99.99,,,-99.99,,2013-03-04 09:02:00,
2013-03-04 04:11:00,12.0,11.0,-100.00,NW,310,4.0,6.0,93,-99.99,,,-99.99,,2013-03-04 09:11:00,
2013-03-04 04:21:00,12.0,10.0,-100.00,NW,310,5.0,7.0,94,-99.99,,,-99.99,,2013-03-04 09:21:00,
2013-03-04 04:32:00,12.0,11.0,-100.00,NW,315,5.0,7.0,95,-99.99,,,-99.99,,2013-03-04 09:32:00,
2013-03-04 04:42:00,12.0,11.0,-100.00,NW,315,5.0,7.0,95,-99.99,,,-99.99,,2013-03-04 09:42:00,
2013-03-04 04:52:00,11.0,10.0,-100.00,NW,325,4.0,7.0,95,-99.99,,,-99.99,,2013-03-04 09:52:00,
2013-03-04 05:01:00,11.0,10.0,-100.00,NNW,335,4.0,6.0,96,-99.99,,,-99.99,,2013-03-04 10:01:00,
2013-03-04 05:11:00,11.0,10.0,-100.00,NNW,335,4.0,6.0,96,-99.99,,,-99.99,,2013-03-04 10:11:00,
2013-03-04 05:22:00,10.0,9.0,-100.00,NW,320,4.0,5.0,96,-99.99,,,-99.99,,2013-03-04 10:22:00,
2013-03-04 05:32:00,10.0,9.0,-100.00,NNW,330,4.0,7.0,96,-99.99,,,-99.99,,2013-03-04 10:32:00,
2013-03-04 05:42:00,10.0,9.0,-100.00,NNW,330,4.0,7.0,96,-99.99,,,-99.99,,2013-03-04 10:42:00,
2013-03-04 05:52:00,10.0,10.0,-100.00,North,350,3.0,7.0,97,-99.99,,,-99.99,,2013-03-04 10:52:00,
2013-03-04 06:02:00,10.0,10.0,-100.00,NNW,340,6.0,8.0,97,-99.99,,,-99.99,,2013-03-04 11:02:00,
2013-03-04 06:11:00,10.0,10.0,-100.00,NNW,340,6.0,8.0,97,-99.99,,,-99.99,,2013-03-04 11:11:00,
2013-03-04 06:22:00,10.0,10.0,-100.00,NW,320,4.0,7.0,97,-99.99,,,-99.99,,2013-03-04 11:22:00,
2013-03-04 06:32:00,10.0,9.0,-100.00,NW,325,5.0,7.0,97,-99.99,,,-99.99,,2013-03-04 11:32:00,
2013-03-04 06:42:00,10.0,9.0,-100.00,NW,325,5.0,7.0,97,-99.99,,,-99.99,,2013-03-04 11:42:00,
2013-03-04 06:52:00,10.0,9.0,-100.00,NNW,345,7.0,13.0,97,-99.99,,,-99.99,,2013-03-04 11:52:00,
2013-03-04 07:01:00,10.0,9.0,-100.00,NNW,345,7.0,13.0,97,-99.99,,,-99.99,,2013-03-04 12:01:00,
2013-03-04 07:11:00,10.0,9.0,-100.00,NNW,345,7.0,13.0,97,-99.99,,,-99.99,,2013-03-04 12:11:00,
2013-03-04 07:22:00,9.0,8.0,-100.00,North,5,5.0,8.0,97,-99.99,,,-99.99,,2013-03-04 12:22:00,
2013-03-04 07:32:00,9.0,8.0,-100.00,NNE,25,4.0,7.0,97,-99.99,,,-99.99,,2013-03-04 12:32:00,
2013-03-04 07:42:00,9.0,8.0,-100.00,NNE,25,4.0,7.0,97,-99.99,,,-99.99,,2013-03-04 12:42:00,
2013-03-04 07:52:00,8.0,8.0,-100.00,NNW,335,4.0,6.0,97,-99.99,,,-99.99,,2013-03-04 12:52:00,
2013-03-04 08:02:00,8.0,8.0,-100.00,NNW,335,4.0,9.0,97,-99.99,,,-99.99,,2013-03-04 13:02:00,
2013-03-04 08:11:00,8.0,8.0,-100.00,NNW,335,4.0,9.0,97,-99.99,,,-99.99,,2013-03-04 13:11:00,
2013-03-04 08:21:00,8.0,7.0,-100.00,NNW,335,4.0,5.0,97,-99.99,,,-99.99,,2013-03-04 13:21:00,
2013-03-04 08:32:00,8.0,8.0,-100.00,NNE,15,4.0,6.0,97,-99.99,,,-99.99,,2013-03-04 13:32:00,
2013-03-04 08:42:00,8.0,8.0,-100.00,NNE,15,4.0,6.0,97,-99.99,,,-99.99,,2013-03-04 13:42:00,
2013-03-04 08:52:00,8.0,7.0,-100.00,NNE,25,4.0,6.0,97,-99.99,,,-99.99,,2013-03-04 13:52:00,
2013-03-04 09:01:00,8.0,8.0,-100.00,NNE,25,4.0,5.0,97,-99.99,,,-99.99,,2013-03-04 14:01:00,
2013-03-04 09:11:00,8.0,8.0,-100.00,NNE,25,4.0,5.0,97,-99.99,,,-99.99,,2013-03-04 14:11:00,
2013-03-04 09:22:00,9.0,9.0,-100.00,North,350,1.0,6.0,97,-99.99,,,-99.99,,2013-03-04 14:22:00,
2013-03-04 09:32:00,11.0,10.0,-100.00,North,350,3.0,4.0,97,-99.99,,,-99.99,,2013-03-04 14:32:00,
2013-03-04 09:42:00,11.0,10.0,-100.00,North,350,3.0,4.0,97,-99.99,,,-99.99,,2013-03-04 14:42:00,
2013-03-04 09:52:00,12.0,11.0,-100.00,North,5,4.0,4.0,97,-99.99,,,-99.99,,2013-03-04 14:52:00,
2013-03-04 10:01:00,13.0,12.0,-100.00,NW,310,2.0,6.0,97,-99.99,,,-99.99,,2013-03-04 15:01:00,
2013-03-04 10:11:00,13.0,12.0,-100.00,NW,310,2.0,6.0,97,-99.99,,,-99.99,,2013-03-04 15:11:00,
2013-03-04 10:22:00,14.0,13.0,-100.00,NW,315,2.0,4.0,96,-99.99,,,-99.99,,2013-03-04 15:22:00,
2013-03-04 10:32:00,17.0,15.0,-100.00,NW,315,2.0,5.0,94,-99.99,,,-99.99,,2013-03-04 15:32:00,
2013-03-04 10:42:00,17.0,15.0,-100.00,NW,315,2.0,5.0,94,-99.99,,,-99.99,,2013-03-04 15:42:00,
2013-03-04 10:52:00,18.0,16.0,-100.00,WNW,290,5.0,6.0,93,-99.99,,,-99.99,,2013-03-04 15:52:00,
2013-03-04 11:02:00,21.0,18.0,-100.00,NE,40,3.0,6.0,90,-99.99,,,-99.99,,2013-03-04 16:02:00,
2013-03-04 11:11:00,21.0,18.0,-100.00,NE,40,3.0,6.0,90,-99.99,,,-99.99,,2013-03-04 16:11:00,
2013-03-04 11:21:00,22.0,18.0,-100.00,NE,40,5.0,7.0,83,-99.99,,,-99.99,,2013-03-04 16:21:00,
2013-03-04 11:32:00,23.0,18.0,-100.00,NNE,30,3.0,10.0,83,-99.99,,,-99.99,,2013-03-04 16:32:00,
2013-03-04 11:42:00,23.0,18.0,-100.00,NNE,30,3.0,10.0,83,-99.99,,,-99.99,,2013-03-04 16:42:00,
2013-03-04 11:52:00,22.0,18.0,-100.00,NE,50,9.0,14.0,83,-99.99,,,-99.99,,2013-03-04 16:52:00,
2013-03-04 12:02:00,23.0,18.0,-100.00,NNE,30,6.0,16.0,80,-99.99,,,-99.99,,2013-03-04 17:02:00,
2013-03-04 12:11:00,23.0,18.0,-100.00,NNE,30,6.0,16.0,80,-99.99,,,-99.99,,2013-03-04 17:11:00,
2013-03-04 12:22:00,23.0,17.0,-100.00,NNE,25,8.0,13.0,76,-99.99,,,-99.99,,2013-03-04 17:22:00,
2013-03-04 12:32:00,24.0,17.0,-100.00,NNE,30,8.0,14.0,74,-99.99,,,-99.99,,2013-03-04 17:32:00,
2013-03-04 12:42:00,24.0,17.0,-100.00,NNE,30,8.0,14.0,74,-99.99,,,-99.99,,2013-03-04 17:42:00,
2013-03-04 12:52:00,27.0,17.0,-100.00,NE,40,4.0,11.0,66,-99.99,,,-99.99,,2013-03-04 17:52:00,
2013-03-04 13:01:00,27.0,17.0,-100.00,NE,50,4.0,11.0,66,-99.99,,,-99.99,,2013-03-04 18:01:00,
2013-03-04 13:11:00,27.0,17.0,-100.00,NE,50,4.0,11.0,66,-99.99,,,-99.99,,2013-03-04 18:11:00,
2013-03-04 13:22:00,28.0,17.0,-100.00,NE,35,6.0,9.0,65,-99.99,,,-99.99,,2013-03-04 18:22:00,
2013-03-04 13:32:00,29.0,18.0,-100.00,NE,50,5.0,9.0,62,-99.99,,,-99.99,,2013-03-04 18:32:00,
2013-03-04 13:42:00,29.0,18.0,-100.00,NE,50,5.0,9.0,62,-99.99,,,-99.99,,2013-03-04 18:42:00,
2013-03-04 13:52:00,29.0,17.0,-100.00,NE,40,9.0,12.0,59,-99.99,,,-99.99,,2013-03-04 18:52:00,
2013-03-04 14:02:00,29.0,17.0,-100.00,NE,40,9.0,12.0,59,-99.99,,,-99.99,,2013-03-04 19:02:00,
2013-03-04 14:11:00,29.0,17.0,-100.00,NE,40,9.0,12.0,59,-99.99,,,-99.99,,2013-03-04 19:11:00,
2013-03-04 14:22:00,29.0,16.0,-100.00,NE,45,9.0,13.0,57,-99.99,,,-99.99,,2013-03-04 19:22:00,
2013-03-04 14:32:00,30.0,16.0,-100.00,NE,40,8.0,15.0,54,-99.99,,,-99.99,,2013-03-04 19:32:00,
2013-03-04 14:42:00,30.0,16.0,-100.00,NE,40,8.0,15.0,54,-99.99,,,-99.99,,2013-03-04 19:42:00,
2013-03-04 14:52:00,31.0,15.0,-100.00,NE,55,8.0,13.0,50,-99.99,,,-99.99,,2013-03-04 19:52:00,
2013-03-04 15:02:00,32.0,16.0,-100.00,NE,35,9.0,13.0,51,-99.99,,,-99.99,,2013-03-04 20:02:00,
2013-03-04 15:11:00,32.0,16.0,-100.00,NE,35,9.0,13.0,51,-99.99,,,-99.99,,2013-03-04 20:11:00,
2013-03-04 15:22:00,32.0,15.0,-100.00,NE,45,9.0,13.0,48,-99.99,,,-99.99,,2013-03-04 20:22:00,
2013-03-04 15:32:00,32.0,16.0,-100.00,East,90,8.0,14.0,50,-99.99,,,-99.99,,2013-03-04 20:32:00,
2013-03-04 15:42:00,32.0,16.0,-100.00,East,90,8.0,14.0,50,-99.99,,,-99.99,,2013-03-04 20:42:00,
2013-03-04 15:52:00,33.0,18.0,-100.00,SE,125,5.0,14.0,55,-99.99,,,-99.99,,2013-03-04 20:52:00,
2013-03-04 16:02:00,32.0,21.0,-100.00,SE,140,6.0,11.0,62,-99.99,,,-99.99,,2013-03-04 21:02:00,
2013-03-04 16:12:00,32.0,21.0,-100.00,SE,140,6.0,11.0,62,-99.99,,,-99.99,,2013-03-04 21:12:00,
2013-03-04 16:22:00,31.0,20.0,-100.00,SSE,150,7.0,11.0,63,-99.99,,,-99.99,,2013-03-04 21:22:00,
2013-03-04 16:32:00,30.0,18.0,-100.00,SSE,160,7.0,13.0,60,-99.99,,,-99.99,,2013-03-04 21:32:00,
2013-03-04 16:42:00,30.0,18.0,-100.00,SSE,160,7.0,13.0,60,-99.99,,,-99.99,,2013-03-04 21:42:00,
2013-03-04 16:52:00,30.0,18.0,-100.00,South,170,9.0,11.0,59,-99.99,,,-99.99,,2013-03-04 21:52:00,
2013-03-04 17:02:00,32.0,19.0,-100.00,ESE,120,6.0,11.0,57,-99.99,,,-99.99,,2013-03-04 22:02:00,
2013-03-04 17:12:00,32.0,19.0,-100.00,ESE,120,6.0,11.0,57,-99.99,,,-99.99,,2013-03-04 22:12:00,
2013-03-04 17:22:00,31.0,18.0,-100.00,SE,145,6.0,10.0,58,-99.99,,,-99.99,,2013-03-04 22:22:00,
2013-03-04 17:32:00,30.0,20.0,-100.00,SE,145,5.0,11.0,65,-99.99,,,-99.99,,2013-03-04 22:32:00,
2013-03-04 17:42:00,30.0,20.0,-100.00,SE,145,5.0,11.0,65,-99.99,,,-99.99,,2013-03-04 22:42:00,
2013-03-04 17:52:00,30.0,21.0,-100.00,SSE,165,6.0,9.0,68,-99.99,,,-99.99,,2013-03-04 22:52:00,
2013-03-04 18:02:00,30.0,21.0,-100.00,SSE,165,6.0,9.0,68,-99.99,,,-99.99,,2013-03-04 23:02:00,
2013-03-04 18:11:00,30.0,21.0,-100.00,SSE,165,6.0,9.0,68,-99.99,,,-99.99,,2013-03-04 23:11:00,
2013-03-04 18:22:00,29.0,21.0,-100.00,SE,135,6.0,9.0,69,-99.99,,,-99.99,,2013-03-04 23:22:00,
2013-03-04 18:32:00,29.0,21.0,-100.00,SSW,195,4.0,7.0,71,-99.99,,,-99.99,,2013-03-04 23:32:00,
2013-03-04 18:42:00,29.0,21.0,-100.00,SSW,195,4.0,7.0,71,-99.99,,,-99.99,,2013-03-04 23:42:00,
2013-03-04 18:52:00,28.0,21.0,-100.00,South,175,5.0,7.0,73,-99.99,,,-99.99,,2013-03-04 23:52:00,
2013-03-04 19:02:00,27.0,20.0,-100.00,SSW,195,4.0,6.0,76,-99.99,,,-99.99,,2013-03-05 00:02:00,
2013-03-04 19:12:00,27.0,20.0,-100.00,SSW,195,4.0,6.0,76,-99.99,,,-99.99,,2013-03-05 00:12:00,
2013-03-04 19:21:00,26.0,20.0,-100.00,SSE,160,4.0,5.0,78,-99.99,,,-99.99,,2013-03-05 00:21:00,
2013-03-04 19:32:00,25.0,20.0,-100.00,SSE,165,4.0,5.0,80,-99.99,,,-99.99,,2013-03-05 00:32:00,
2013-03-04 19:42:00,25.0,20.0,-100.00,SSE,165,4.0,5.0,80,-99.99,,,-99.99,,2013-03-05 00:42:00,
2013-03-04 19:51:00,25.0,20.0,-100.00,SSE,160,4.0,4.0,82,-99.99,,,-99.99,,2013-03-05 00:51:00,
2013-03-04 20:01:00,24.0,20.0,-100.00,SSW,200,1.0,2.0,83,-99.99,,,-99.99,,2013-03-05 01:01:00,
2013-03-04 20:12:00,24.0,20.0,-100.00,SSW,200,1.0,2.0,83,-99.99,,,-99.99,,2013-03-05 01:12:00,
2013-03-04 20:20:00,23.0,18.0,-100.00,NNE,30,5.0,8.0,78,-99.99,,,-99.99,,2013-03-05 01:20:00,
2013-03-04 20:22:00,24.0,19.0,-100.00,NNE,20,2.0,3.0,83,-99.99,,,-99.99,,2013-03-05 01:22:00,
2013-03-04 20:32:00,23.0,19.0,-100.00,WNW,295,2.0,4.0,84,-99.99,,,-99.99,,2013-03-05 01:32:00,
2013-03-04 20:42:00,23.0,19.0,-100.00,WNW,295,2.0,4.0,84,-99.99,,,-99.99,,2013-03-05 01:42:00,
2013-03-04 20:52:00,22.0,18.0,-100.00,NE,45,2.0,6.0,85,-99.99,,,-99.99,,2013-03-05 01:52:00,
2013-03-04 21:01:00,23.0,18.0,-100.00,NNE,30,5.0,8.0,78,-99.99,,,-99.99,,2013-03-05 02:01:00,
2013-03-04 21:11:00,23.0,18.0,-100.00,NNE,30,5.0,8.0,78,-99.99,,,-99.99,,2013-03-05 02:11:00,
2013-03-04 21:32:00,24.0,12.0,-100.00,NNE,30,6.0,11.0,59,-99.99,,,-99.99,,2013-03-05 02:32:00,
2013-03-04 21:42:00,24.0,12.0,-100.00,NNE,30,6.0,11.0,59,-99.99,,,-99.99,,2013-03-05 02:42:00,
2013-03-04 21:52:00,24.0,13.0,-100.00,NNE,30,6.0,11.0,63,-99.99,,,-99.99,,2013-03-05 02:52:00,
2013-03-04 22:02:00,23.0,14.0,-100.00,NE,40,6.0,10.0,68,-99.99,,,-99.99,,2013-03-05 03:02:00,
2013-03-04 22:12:00,23.0,14.0,-100.00,NE,40,6.0,10.0,68,-99.99,,,-99.99,,2013-03-05 03:12:00,
2013-03-04 22:22:00,23.0,15.0,-100.00,NNE,15,6.0,11.0,72,-99.99,,,-99.99,,2013-03-05 03:22:00,
2013-03-04 22:32:00,23.0,16.0,-100.00,North,5,6.0,11.0,74,-99.99,,,-99.99,,2013-03-05 03:32:00,
2013-03-04 22:42:00,23.0,16.0,-100.00,North,5,6.0,11.0,74,-99.99,,,-99.99,,2013-03-05 03:42:00,
2013-03-04 22:52:00,23.0,16.0,-100.00,NNE,25,4.0,10.0,76,-99.99,,,-99.99,,2013-03-05 03:52:00,
2013-03-04 23:02:00,22.0,16.0,-100.00,NE,35,5.0,9.0,78,-99.99,,,-99.99,,2013-03-05 04:02:00,
2013-03-04 23:12:00,22.0,16.0,-100.00,NE,35,5.0,9.0,78,-99.99,,,-99.99,,2013-03-05 04:12:00,
2013-03-04 23:22:00,21.0,16.0,-100.00,NE,40,4.0,8.0,80,-99.99,,,-99.99,,2013-03-05 04:22:00,
2013-03-04 23:32:00,21.0,16.0,-100.00,North,10,4.0,6.0,81,-99.99,,,-99.99,,2013-03-05 04:32:00,
2013-03-04 23:42:00,21.0,16.0,-100.00,North,10,4.0,6.0,81,-99.99,,,-99.99,,2013-03-05 04:42:00,
2013-03-04 23:52:00,20.0,16.0,-100.00,North,10,3.0,6.0,82,-99.99,,,-99.99,,2013-03-05 04:52:00,